Tracking 19720 objects as of 27-Jun-2019
HD Live streaming from Space Station
objects crossing your sky now

SATCOM 1

Track SATCOM 1 now!
SATCOM 1 is classified as:


NORAD ID: 8476
Int'l Code: 1975-117A
Perigee: 35,921.5 km
Apogee: 36,040.4 km
Inclination: 13.1 °
Period: 1,445.7 minutes
Semi major axis: 42351 km
RCS: 2.5118 m2 (large)
Launch date: December 13, 1975
Source: United States (US)
Launch site: AIR FORCE EASTERN TEST RANGE (AFETR)
aabbcc
Your satellite tracking list
Your tracking list is empty




NASA's NSSDC Master Catalog

Two Line Element Set (TLE):
1  8476U 75117A   19177.17245368 -.00000096  00000-0  00000+0 0  9992
2  8476  13.0598 327.9063 0014036 203.8610 343.2750  0.99607623104255
Source of the keplerian elements: AFSPC